Location: De Har
(53.3413°N, 6.6858°E)
Time: 16:36:20
(UTC+00:00)

MSX - Pass Details

Date: 22 April 2026
Orbit: 894 x 905 km, 99.0° (Epoch: 8 May)

Event Time Altitude Azimuth Distance (km) Brightness Sun altitude
Rises 02:08:13 0° 14° (NNE) 3,528 8.1 -16.5°
Reaches altitude 10° 02:10:40 10° 10° (N) 2,585 7.1 -16.3°
Maximum altitude 02:16:15 55° 295° (WNW) 1,079 4.1 -15.7°
Enters shadow 02:19:44 23° 226° (SW) 1,817 4.8 -15.4°
